Вернуться в каталог

STARLINK-3853

АктивенСвязьVLEO
NORAD 52359·PAYLOAD·🇺🇸 United States

Запущен Apr 29, 2022 с Cape Canaveral Space Force Station

Loading…

Ближайшие Пролёты (ближайшие 24 часа)

TLE

СвежийSource: CelesTrak SupGP

Эпоха: Sep 15, 2026, 01:52 UTC

1 52359C 22045AE  26258.07826389 -.00030920  00000+0 -99437-3 0  2581
2 52359  53.1603  59.0358 0001224  82.6691 105.6534 15.31715562    16

Отслеживайте STARLINK-3853 в реальном времени с AllMySat

Download on the App Store